Location: Newark
(49.8969°N, 3.3422°E)
Time: 16:48:11
(UTC+00:00)

Tiros 1 - Pass Details

Date: 09 May 2021
Orbit: 630 x 664 km, 48.4° (Epoch: 11 June)

Event Time Altitude Azimuth Distance (km) Brightness Sun altitude
Exits shadow 01:04:53 16° 132° (SE) 1,716 9.1 -20.3°
Drops below altitude 10° 01:07:16 10° 102° (ESE) 2,062 9.8 -20.2°
Sets 01:10:24 0° 81° (E) 2,970 11.0 -20.0°
